Regional Weather Roundup
Issued by NWS State College, PA

Home | Current Version | Previous Version | Text Only | Print | Product List | Glossary Off
Versions: 1 2 3 4 5 6 7 8 9 10 11 12 13 14 15 16 17 18 19 20 21 22 23 24 25 26 27 28 29 30 31 32 33 34 35 36 37 38 39 40 41 42 43 44 45 46 47 48 49 50

000
ASUS41 KCTP 170410
RWRCTP

REGIONAL WEATHER ROUNDUP
NATIONAL WEATHER SERVICE STATE COLLEGE PA
1200 AM EDT TUE OCT 17 2017

Note: "fair" indicates few or no clouds below 12,000 feet with no
significant weather and/or obstructions to visibility.

* = STATION THAT DOES NOT REPORT PRECIPITATION /E.G. RAIN...SNOW...ETC/
    THUNDER OR FOG.

PAZ002>004-007>009-013>016-020>023-029>032-170500-
WESTERN PENNSYLVANIA

CITY           SKY/WX    TMP DP  RH WIND       PRES   REMARKS
ERIE           CLEAR     40  34  79 S3        30.27F
MEADVILLE      CLEAR     38  36  92 S5        30.28S
FRANKLIN*      CLEAR     37  35  92 SW5       30.28F
NEW CASTLE     FAIR      36  33  89 CALM      30.31S
BEAVER COUNTY  NOT AVBL
BUTLER*        CLEAR     37  33  85 CALM      30.30S
PITTSBURGH INT CLEAR     42  36  79 CALM      30.30S
PITTSBURGH     CLEAR     46  31  55 N3        30.29S
INDIANA*       CLEAR     37  36  93 CALM      30.31F
LATROBE        CLEAR     39  37  93 CALM      30.30F
WASHINGTON CO* CLEAR     39  37  92 CALM      30.33S
$$

PAZ004>006-010>012-017>019-024>028-033>037-041-042-045-046-049>053-170500-
CENTRAL PENNSYLVANIA

CITY           SKY/WX    TMP DP  RH WIND       PRES   REMARKS
BRADFORD       CLEAR     30  29  96 CALM      30.25S
DUBOIS         CLEAR     37  30  75 CALM      30.26F
CLEARFIELD     CLEAR     38  32  79 CALM      30.27F
JOHNSTOWN      CLEAR     40  31  70 N5        30.26F
ALTOONA        CLEAR     42  33  70 N6        30.28S
STATE COLLEGE  PTCLDY    40  32  74 CALM      30.27F
WILLIAMSPORT   CLEAR     43  35  73 CALM      30.27S
SELINSGROVE    CLEAR     40  38  93 N6        30.28S
FT INDIANTOWN  CLEAR     46  33  59 E5        30.26R
CAPITAL CITY   CLEAR     52  29  41 N7        30.27R
HARRISBURG     CLEAR     49  32  52 N6        30.26R
YORK           CLEAR     41  37  86 NW3       30.26R
$$

PAZ038>040-043-044-047-048-054-055-060>062-067>071-170500-
EASTERN PENNSYLVANIA

CITY           SKY/WX    TMP DP  RH WIND       PRES   REMARKS
SCRANTON       CLEAR     41  32  70 NW3       30.25S
MOUNT POCONO   CLEAR     35  29  78 NW8       30.20S
ALLENTOWN      CLEAR     43  32  65 N10       30.26R
QUAKERTOWN*    CLEAR     45  34  65 N5        30.25S
READING        CLEAR     44  38  79 N6        30.25R
LANCASTER      CLEAR     47  37  68 N10       30.26R
COATESVILLE    CLEAR     45  37  76 N5        30.26R
POTTSTOWN      CLEAR     44  34  67 N6        30.27R
BLUE BELL      CLEAR     41  36  81 CALM      30.26S
DOYLESTOWN     CLEAR     44  33  65 N10       30.24R
WILLOW GROVE   NOT AVBL
NORTH PHILA    CLEAR     48  35  60 N10       30.26R
PHILADELPHIA   CLEAR     50  34  54 N10       30.25R
$$



USA.gov is the U.S. government's official web portal to all federal, state and local government web resources and services.